Location: �perlecques
(50.8057°N, 2.1521°E)
Time: 09:56:07
(UTC+00:00)

Vanguard 3 - Visible Passes

Search period start: 31 July 2021 00:00
Search period end: 10 August 2021 00:00
Orbit: 508 x 3261 km, 33.4° (Epoch: 30 July)

Date Brightness Start Highest point End Pass type
(mag) Time Alt. Az. Time Alt. Az. Time Alt. Az.
31 Jul 10.8 01:07:43 10° WSW 01:15:53 15° SW 01:16:02 15° SW visible
31 Jul 10.4 21:31:27 10° WSW 21:48:20 40° SSW 22:00:32 19° SE visible
31 Jul 10.5 23:47:54 10° W 00:01:22 24° SW 00:04:59 22° SSW visible
01 Aug 10.4 20:15:51 10° WSW 20:32:12 44° S 20:49:30 10° ESE visible
01 Aug 10.4 22:30:23 10° W 22:46:08 32° SSW 22:54:01 24° S visible
02 Aug 10.9 00:50:57 10° WSW 00:58:00 13° SW 00:58:29 13° SW visible
02 Aug 10.5 21:14:05 10° WSW 21:30:21 39° SSW 21:43:05 18° SSE visible
02 Aug 10.6 23:30:32 10° W 23:43:23 22° SW 23:47:33 20° SSW visible
03 Aug 10.5 19:58:41 10° WSW 20:14:14 43° S 20:31:45 10° SE visible
03 Aug 10.6 22:13:03 10° W 22:28:08 30° SSW 22:36:41 22° S visible
04 Aug 11.0 00:35:01 10° WSW 00:40:04 12° SW 00:41:09 11° SW visible
04 Aug 10.6 20:56:54 10° WSW 21:12:22 37° SSW 21:25:51 16° SSE visible
04 Aug 10.8 23:13:27 10° W 23:25:24 20° SW 23:30:20 18° SSW visible
05 Aug 10.5 19:41:41 10° WSW 19:56:21 41° S 20:13:50 10° SE visible
05 Aug 10.7 21:55:55 10° W 22:10:08 28° SSW 22:19:33 19° S visible
06 Aug 10.6 20:39:53 10° WSW 20:54:26 35° SSW 21:08:50 14° SSE visible
06 Aug 10.9 22:56:43 10° WSW 23:07:25 18° SW 23:13:19 15° SSW visible
07 Aug 10.9 21:39:00 10° W 21:52:11 26° SSW 22:02:39 16° S visible
08 Aug 10.7 20:23:03 10° WSW 20:36:34 32° SSW 20:52:02 11° SSE visible
08 Aug 11.1 22:40:27 10° WSW 22:49:29 15° SW 22:56:31 12° SSW visible
09 Aug 11.0 21:22:22 10° WSW 21:34:17 23° SW 21:45:59 12° S visible
